This is the latest recevied weather packets stored in our database for station/object AI9F. If no packets are shown the sender has not sent any weather packets the latest 10 day(s).
| Time | Temp. | Humidity | Pressure | Rain* | Wind** | Luminosity | Snow |
|---|---|---|---|---|---|---|---|
| 1777473195 | 15.56° C | 79% | 1014.4 hPa | 0 mm | - | 69 W/m² | - |
| 1777472893 | 15.56° C | 77% | 1014.4 hPa | 0 mm | - | 116 W/m² | - |
| 1777472589 | 15.56° C | 77% | 1014.7 hPa | 0 mm | - | 83 W/m² | - |
| 1777472286 | 15.56° C | 81% | 1014.6 hPa | 0 mm | - | 96 W/m² | - |
| 1777471982 | 15° C | 81% | 1014.4 hPa | 0 mm | - | 79 W/m² | - |
| 1777471678 | 15.56° C | 79% | 1014.2 hPa | 0 mm | - | 91 W/m² | - |
| 1777471375 | 15° C | 83% | 1014.3 hPa | 0 mm | - | 87 W/m² | - |
| 1777471071 | 15° C | 81% | 1014 hPa | 0 mm | - | 98 W/m² | - |
| 1777470769 | 14.44° C | 83% | 1014.2 hPa | 0 mm | - | 72 W/m² | - |
| 1777470465 | 14.44° C | 84% | 1014.3 hPa | 0 mm | - | 59 W/m² | - |
| 1777470161 | 15° C | 84% | 1014.1 hPa | 0 mm | - | 77 W/m² | - |
| 1777469858 | 14.44° C | 84% | 1014 hPa | 0 mm | - | 72 W/m² | - |
| 1777469554 | 13.89° C | 85% | 1014.2 hPa | 0 mm | - | 180 W/m² | - |
| 1777469254 | 14.44° C | 87% | 1014.1 hPa | 0 mm | - | 124 W/m² | - |
| 1777468948 | 15° C | 86% | 1014 hPa | 0 mm | - | 57 W/m² | - |
| 1777468645 | 15° C | 86% | 1014 hPa | 0 mm | - | 103 W/m² | - |
| 1777468342 | 15° C | 87% | 1014.1 hPa | 0 mm | - | 130 W/m² | - |
| 1777468038 | 14.44° C | 87% | 1013.9 hPa | 0 mm | - | 105 W/m² | - |
| 1777467734 | 14.44° C | 87% | 1013.7 hPa | 0 mm | - | 107 W/m² | - |
| 1777467430 | 14.44° C | 90% | 1013.7 hPa | 0 mm | - | 83 W/m² | - |
| 1777467125 | 13.89° C | 91% | 1013.7 hPa | 0 mm | - | 97 W/m² | - |
| 1777466823 | 13.33° C | 92% | 1013.8 hPa | 0 mm | - | 81 W/m² | - |
| 1777466521 | 13.89° C | 90% | 1013.7 hPa | 0 mm | - | 68 W/m² | - |
| 1777466216 | 13.89° C | 91% | 1013.7 hPa | 0 mm | - | 55 W/m² | - |
| 1777465913 | 13.89° C | 92% | 1013.6 hPa | 0 mm | - | 136 W/m² | - |
* Rain latest hour (hover to see other rain measurements)
** Current wind speed in m/s (hover to see current wind gust speed)